| time (UTC) | temp F | wind direction | speed MPH | gust MPH | rain 1hr in | rain 24hr in | rain mn in | humidity % | barometer mb |
| 20260905001718 | 76 | 0 | 0.0 | 3.0 | 0.00 | 0.00 | 0.00 | 50 | 1018.4 |
| 20260905001218 | 76 | 0 | 1.0 | 3.0 | 0.00 | 0.00 | 0.00 | 50 | 1018.5 |
| 20260905000718 | 76 | 0 | 1.0 | 2.0 | 0.00 | 0.00 | 0.00 | 51 | 1018.6 |
| 20260905000219 | 76 | 0 | 0.0 | 2.0 | 0.00 | 0.00 | 0.00 | 51 | 1018.6 |
| 20260904235718 | 76 | 0 | 1.0 | 2.0 | 0.00 | 0.00 | 0.00 | 51 | 1018.7 |
| 20260904235218 | 76 | 0 | 1.0 | 1.0 | 0.00 | 0.00 | 0.00 | 52 | 1018.7 |
| 20260904234717 | 76 | 0 | 0.0 | 0.0 | 0.00 | 0.00 | 0.00 | 52 | 1018.7 |
| 20260904234217 | 75 | 0 | 0.0 | 1.0 | 0.00 | 0.00 | 0.00 | 52 | 1018.7 |
| 20260904233717 | 75 | 0 | 0.0 | 1.0 | 0.00 | 0.00 | 0.00 | 52 | 1018.8 |
| 20260904233216 | 75 | 0 | 0.0 | 1.0 | 0.00 | 0.00 | 0.00 | 52 | 1018.8 |
| 20260904232933 | 75 | 0 | 0.0 | 1.0 | 0.00 | 0.00 | 0.00 | 53 | 1018.8 |
| 20260904232215 | 75 | 0 | 1.0 | 1.0 | 0.00 | 0.00 | 0.00 | 52 | 1018.8 |
| 20260904231715 | 76 | 0 | 0.0 | 1.0 | 0.00 | 0.00 | 0.00 | 52 | 1018.7 |
| 20260904231215 | 76 | 0 | 0.0 | 1.0 | 0.00 | 0.00 | 0.00 | 52 | 1018.7 |
| 20260904230715 | 76 | 0 | 0.0 | 1.0 | 0.00 | 0.00 | 0.00 | 52 | 1018.8 |
| 20260904230700 | 76 | 0 | 0.0 | 2.0 | 0.00 | 0.00 | 0.00 | 51 | 1018.8 |
| 20260904225716 | 77 | 0 | 0.0 | 2.0 | 0.00 | 0.00 | 0.00 | 49 | 1018.7 |
| 20260904225216 | 78 | 0 | 0.0 | 1.0 | 0.00 | 0.00 | 0.00 | 47 | 1018.8 |
| 20260904224716 | 78 | 0 | 0.0 | 2.0 | 0.00 | 0.00 | 0.00 | 47 | 1018.8 |
| 20260904224215 | 79 | 0 | 1.0 | 2.0 | 0.00 | 0.00 | 0.00 | 47 | 1018.7 |
| 20260904223944 | 79 | 0 | 0.0 | 0.0 | 0.00 | 0.00 | 0.00 | 47 | 1018.6 |
| 20260904223216 | 79 | 0 | 0.0 | 1.0 | 0.00 | 0.00 | 0.00 | 47 | 1018.5 |
| 20260904222715 | 79 | 0 | 0.0 | 1.0 | 0.00 | 0.00 | 0.00 | 47 | 1018.5 |
| 20260904222216 | 79 | 0 | 0.0 | 1.0 | 0.00 | 0.00 | 0.00 | 46 | 1018.5 |
| 20260904221715 | 80 | 0 | 0.0 | 1.0 | 0.00 | 0.00 | 0.00 | 46 | 1018.5 |
| 20260904221215 | 80 | 0 | 0.0 | 0.0 | 0.00 | 0.00 | 0.00 | 46 | 1018.5 |
| 20260904220715 | 80 | 0 | 0.0 | 1.0 | 0.00 | 0.00 | 0.00 | 45 | 1018.5 |
| 20260904220435 | 80 | 0 | 0.0 | 1.0 | 0.00 | 0.00 | 0.00 | 45 | 1018.5 |
| 20260904220427 | 80 | 0 | 0.0 | 2.0 | 0.00 | 0.00 | 0.00 | 45 | 1018.5 |
| 20260904215215 | 81 | 0 | 0.0 | 4.0 | 0.00 | 0.00 | 0.00 | 44 | 1018.6 |
| 20260904214715 | 81 | 0 | 2.0 | 4.0 | 0.00 | 0.00 | 0.00 | 45 | 1018.6 |
| 20260904214214 | 81 | 0 | 2.0 | 5.0 | 0.00 | 0.00 | 0.00 | 44 | 1018.6 |
| 20260904213715 | 81 | 0 | 3.0 | 5.0 | 0.00 | 0.00 | 0.00 | 44 | 1018.7 |
| 20260904213221 | 81 | 0 | 4.0 | 5.0 | 0.00 | 0.00 | 0.00 | 44 | 1018.7 |
| 20260904212714 | 81 | 0 | 4.0 | 5.0 | 0.00 | 0.00 | 0.00 | 44 | 1018.7 |
| 20260904212214 | 81 | 0 | 4.0 | 5.0 | 0.00 | 0.00 | 0.00 | 44 | 1018.7 |
| 20260904211714 | 81 | 0 | 3.0 | 5.0 | 0.00 | 0.00 | 0.00 | 44 | 1018.7 |
| 20260904211435 | 82 | 0 | 4.0 | 5.0 | 0.00 | 0.00 | 0.00 | 44 | 1018.8 |
| 20260904210713 | 82 | 0 | 3.0 | 5.0 | 0.00 | 0.00 | 0.00 | 44 | 1018.7 |
| 20260904210219 | 82 | 0 | 4.0 | 5.0 | 0.00 | 0.00 | 0.00 | 44 | 1018.8 |
| 20260904205713 | 82 | 0 | 3.0 | 4.0 | 0.00 | 0.00 | 0.00 | 44 | 1018.8 |
| 20260904205214 | 82 | 0 | 2.0 | 4.0 | 0.00 | 0.00 | 0.00 | 43 | 1018.8 |
| 20260904204713 | 82 | 0 | 3.0 | 5.0 | 0.00 | 0.00 | 0.00 | 43 | 1018.7 |
| 20260904204213 | 82 | 0 | 4.0 | 6.0 | 0.00 | 0.00 | 0.00 | 43 | 1018.8 |
| 20260904204151 | 82 | 0 | 3.0 | 6.0 | 0.00 | 0.00 | 0.00 | 43 | 1018.8 |
| 20260904203213 | 83 | 0 | 3.0 | 4.0 | 0.00 | 0.00 | 0.00 | 43 | 1018.9 |
| 20260904202713 | 83 | 0 | 3.0 | 4.0 | 0.00 | 0.00 | 0.00 | 42 | 1018.9 |
| 20260904202703 | 83 | 0 | 2.0 | 4.0 | 0.00 | 0.00 | 0.00 | 42 | 1018.9 |
| 20260904201713 | 83 | 0 | 2.0 | 4.0 | 0.00 | 0.00 | 0.00 | 42 | 1018.9 |
| 20260904201213 | 83 | 0 | 2.0 | 4.0 | 0.00 | 0.00 | 0.00 | 42 | 1018.9 |
| 20260904200713 | 83 | 0 | 3.0 | 4.0 | 0.00 | 0.00 | 0.00 | 42 | 1018.9 |
| 20260904200213 | 84 | 0 | 3.0 | 4.0 | 0.00 | 0.00 | 0.00 | 41 | 1018.9 |
| 20260904195713 | 84 | 0 | 3.0 | 4.0 | 0.00 | 0.00 | 0.00 | 41 | 1018.8 |
| 20260904195212 | 84 | 0 | 2.0 | 3.0 | 0.00 | 0.00 | 0.00 | 41 | 1018.8 |
| 20260904194712 | 84 | 0 | 2.0 | 3.0 | 0.00 | 0.00 | 0.00 | 40 | 1018.9 |
| 20260904194212 | 85 | 0 | 1.0 | 3.0 | 0.00 | 0.00 | 0.00 | 40 | 1018.9 |
| 20260904193712 | 85 | 0 | 2.0 | 4.0 | 0.00 | 0.00 | 0.00 | 40 | 1018.9 |
| 20260904193213 | 85 | 0 | 2.0 | 4.0 | 0.00 | 0.00 | 0.00 | 40 | 1018.9 |
| 20260904192712 | 85 | 0 | 2.0 | 4.0 | 0.00 | 0.00 | 0.00 | 40 | 1018.8 |
| 20260904192431 | 85 | 0 | 3.0 | 4.0 | 0.00 | 0.00 | 0.00 | 39 | 1018.6 |
| 20260904191711 | 85 | 45 | 2.0 | 3.0 | 0.00 | 0.00 | 0.00 | 39 | 1018.6 |
| 20260904191211 | 86 | 51 | 2.0 | 3.0 | 0.00 | 0.00 | 0.00 | 38 | 1018.6 |
| 20260904190716 | 86 | 52 | 2.0 | 3.0 | 0.00 | 0.00 | 0.00 | 38 | 1018.6 |
| 20260904190256 | 86 | 0 | 1.0 | 4.0 | 0.00 | 0.00 | 0.00 | 38 | 1018.4 |
| 20260904185711 | 86 | 62 | 3.0 | 5.0 | 0.00 | 0.00 | 0.00 | 38 | 1018.3 |
| 20260904185211 | 86 | 65 | 2.0 | 5.0 | 0.00 | 0.00 | 0.00 | 38 | 1018.2 |
| 20260904184721 | 86 | 0 | 4.0 | 5.0 | 0.00 | 0.00 | 0.00 | 37 | 1018.1 |
| 20260904184412 | 87 | 0 | 4.0 | 7.0 | 0.00 | 0.00 | 0.00 | 37 | 1018.0 |
| 20260904184400 | 87 | 63 | 2.0 | 7.0 | 0.00 | 0.00 | 0.00 | 37 | 1018.1 |
| 20260904183210 | 87 | 0 | 4.0 | 7.0 | 0.00 | 0.00 | 0.00 | 37 | 1018.0 |
| 20260904182711 | 87 | 0 | 5.0 | 7.0 | 0.00 | 0.00 | 0.00 | 36 | 1018.0 |
| 20260904182210 | 87 | 0 | 4.0 | 7.0 | 0.00 | 0.00 | 0.00 | 36 | 1017.9 |
| 20260904181710 | 87 | 66 | 5.0 | 7.0 | 0.00 | 0.00 | 0.00 | 36 | 1017.8 |
| 20260904181702 | 88 | 72 | 3.0 | 7.0 | 0.00 | 0.00 | 0.00 | 35 | 1017.8 |
| 20260904180711 | 88 | 52 | 3.0 | 6.0 | 0.00 | 0.00 | 0.00 | 35 | 1017.8 |
| 20260904180432 | 88 | 63 | 5.0 | 6.0 | 0.00 | 0.00 | 0.00 | 35 | 1017.7 |
| 20260904175938 | 88 | 37 | 4.0 | 7.0 | 0.00 | 0.00 | 0.00 | 34 | 1017.7 |
| 20260904175431 | 89 | 68 | 4.0 | 7.0 | 0.00 | 0.00 | 0.00 | 34 | 1017.6 |
| 20260904174708 | 89 | 48 | 5.0 | 7.0 | 0.00 | 0.00 | 0.00 | 33 | 1017.6 |
| 20260904174208 | 89 | 32 | 4.0 | 7.0 | 0.00 | 0.00 | 0.00 | 33 | 1017.7 |
| 20260904173708 | 90 | 66 | 2.0 | 7.0 | 0.00 | 0.00 | 0.00 | 32 | 1017.7 |
| 20260904173208 | 90 | 42 | 4.0 | 7.0 | 0.00 | 0.00 | 0.00 | 32 | 1017.7 |
| 20260904172708 | 90 | 54 | 4.0 | 9.0 | 0.00 | 0.00 | 0.00 | 31 | 1017.7 |
| 20260904172427 | 90 | 49 | 4.0 | 9.0 | 0.00 | 0.00 | 0.00 | 31 | 1017.7 |
| 20260904171707 | 91 | 55 | 4.0 | 7.0 | 0.00 | 0.00 | 0.00 | 31 | 1017.7 |
| 20260904171207 | 91 | 28 | 4.0 | 7.0 | 0.00 | 0.00 | 0.00 | 30 | 1017.6 |
| 20260904170707 | 91 | 73 | 3.0 | 7.0 | 0.00 | 0.00 | 0.00 | 30 | 1017.7 |
| 20260904170207 | 91 | 65 | 3.0 | 9.0 | 0.00 | 0.00 | 0.00 | 30 | 1017.6 |
| 20260904165707 | 91 | 48 | 6.0 | 10.0 | 0.00 | 0.00 | 0.00 | 29 | 1017.6 |
| 20260904165207 | 92 | 52 | 6.0 | 10.0 | 0.00 | 0.00 | 0.00 | 29 | 1017.7 |
| 20260904164935 | 92 | 73 | 6.0 | 11.0 | 0.00 | 0.00 | 0.00 | 28 | 1017.6 |
| 20260904164207 | 93 | 48 | 5.0 | 11.0 | 0.00 | 0.00 | 0.00 | 28 | 1017.6 |
| 20260904163706 | 94 | 80 | 3.0 | 10.0 | 0.00 | 0.00 | 0.00 | 27 | 1017.7 |
| 20260904163426 | 94 | 92 | 6.0 | 7.0 | 0.00 | 0.00 | 0.00 | 26 | 1017.7 |
| 20260904162706 | 95 | 224 | 5.0 | 7.0 | 0.00 | 0.00 | 0.00 | 25 | 1017.7 |
| 20260904162206 | 95 | 134 | 0.0 | 4.0 | 0.00 | 0.00 | 0.00 | 25 | 1017.7 |
| 20260904162150 | 95 | 135 | 3.0 | 4.0 | 0.00 | 0.00 | 0.00 | 25 | 1017.8 |
| 20260904161206 | 95 | 176 | 1.0 | 4.0 | 0.00 | 0.00 | 0.00 | 24 | 1017.8 |
| 20260904160933 | 96 | 154 | 2.0 | 4.0 | 0.00 | 0.00 | 0.00 | 23 | 1017.8 |
| 20260904160207 | 96 | 99 | 1.0 | 4.0 | 0.00 | 0.00 | 0.00 | 23 | 1017.9 |
| 20260904155928 | 95 | 99 | 1.0 | 5.0 | 0.00 | 0.00 | 0.00 | 23 | 1017.8 |
| 20260904155207 | 95 | 103 | 2.0 | 5.0 | 0.00 | 0.00 | 0.00 | 23 | 1017.9 |
| 20260904154707 | 95 | 68 | 3.0 | 5.0 | 0.00 | 0.00 | 0.00 | 24 | 1017.9 |
| 20260904154206 | 95 | 100 | 2.0 | 6.0 | 0.00 | 0.00 | 0.00 | 25 | 1018.0 |
| 20260904153707 | 95 | 135 | 0.0 | 6.0 | 0.00 | 0.00 | 0.00 | 24 | 1017.9 |
| 20260904153206 | 95 | 114 | 2.0 | 5.0 | 0.00 | 0.00 | 0.00 | 24 | 1017.9 |
| 20260904152707 | 95 | 86 | 1.0 | 5.0 | 0.00 | 0.00 | 0.00 | 25 | 1018.0 |
| 20260904152206 | 95 | 117 | 2.0 | 5.0 | 0.00 | 0.00 | 0.00 | 25 | 1018.1 |
| 20260904151705 | 95 | 148 | 1.0 | 6.0 | 0.00 | 0.00 | 0.00 | 24 | 1018.1 |
| 20260904151433 | 95 | 83 | 3.0 | 6.0 | 0.00 | 0.00 | 0.00 | 24 | 1018.2 |
| 20260904150706 | 96 | 107 | 1.0 | 5.0 | 0.00 | 0.00 | 0.00 | 23 | 1018.2 |
| 20260904150205 | 95 | 114 | 1.0 | 4.0 | 0.00 | 0.00 | 0.00 | 24 | 1018.2 |
| 20260904150146 | 95 | 102 | 2.0 | 7.0 | 0.00 | 0.00 | 0.00 | 24 | 1018.3 |
| 20260904145206 | 94 | 97 | 4.0 | 9.0 | 0.00 | 0.00 | 0.00 | 24 | 1018.3 |
| 20260904144706 | 95 | 102 | 6.0 | 9.0 | 0.00 | 0.00 | 0.00 | 23 | 1018.4 |
| 20260904144206 | 95 | 90 | 3.0 | 6.0 | 0.00 | 0.00 | 0.00 | 24 | 1018.4 |
| 20260904143705 | 94 | 121 | 4.0 | 5.0 | 0.00 | 0.00 | 0.00 | 25 | 1018.4 |
| 20260904143205 | 95 | 111 | 3.0 | 6.0 | 0.00 | 0.00 | 0.00 | 24 | 1018.4 |
| 20260904142706 | 95 | 76 | 4.0 | 6.0 | 0.00 | 0.00 | 0.00 | 24 | 1018.5 |
| 20260904142205 | 95 | 192 | 1.0 | 9.0 | 0.00 | 0.00 | 0.00 | 25 | 1018.5 |
| 20260904141706 | 94 | 109 | 3.0 | 9.0 | 0.00 | 0.00 | 0.00 | 25 | 1018.6 |
| 20260904141206 | 94 | 176 | 3.0 | 6.0 | 0.00 | 0.00 | 0.00 | 26 | 1018.5 |
| 20260904140925 | 93 | 186 | 5.0 | 7.0 | 0.00 | 0.00 | 0.00 | 25 | 1018.5 |
| 20260904140206 | 93 | 193 | 5.0 | 7.0 | 0.00 | 0.00 | 0.00 | 25 | 1018.6 |
| 20260904135930 | 93 | 175 | 3.0 | 9.0 | 0.00 | 0.00 | 0.00 | 25 | 1018.7 |
| 20260904135210 | 94 | 157 | 4.0 | 9.0 | 0.00 | 0.00 | 0.00 | 25 | 1018.7 |
| 20260904134705 | 94 | 127 | 5.0 | 9.0 | 0.00 | 0.00 | 0.00 | 24 | 1018.7 |
| 20260904134432 | 94 | 182 | 2.0 | 5.0 | 0.00 | 0.00 | 0.00 | 25 | 1018.7 |
| 20260904133705 | 94 | 130 | 1.0 | 9.0 | 0.00 | 0.00 | 0.00 | 24 | 1018.7 |
| 20260904133205 | 94 | 111 | 5.0 | 10.0 | 0.00 | 0.00 | 0.00 | 24 | 1018.8 |
| 20260904132704 | 94 | 125 | 3.0 | 10.0 | 0.00 | 0.00 | 0.00 | 25 | 1018.8 |
| 20260904132203 | 93 | 173 | 2.0 | 9.0 | 0.00 | 0.00 | 0.00 | 26 | 1018.8 |
| 20260904131704 | 93 | 72 | 7.0 | 9.0 | 0.00 | 0.00 | 0.00 | 25 | 1018.9 |
| 20260904131204 | 94 | 142 | 3.0 | 7.0 | 0.00 | 0.00 | 0.00 | 25 | 1019.0 |
| 20260904130704 | 94 | 148 | 3.0 | 7.0 | 0.00 | 0.00 | 0.00 | 25 | 1019.0 |
| 20260904130204 | 94 | 83 | 1.0 | 5.0 | 0.00 | 0.00 | 0.00 | 25 | 1019.1 |
| 20260904125704 | 94 | 123 | 2.0 | 5.0 | 0.00 | 0.00 | 0.00 | 26 | 1019.1 |
| 20260904125204 | 93 | 32 | 4.0 | 10.0 | 0.00 | 0.00 | 0.00 | 27 | 1019.4 |
| 20260904124704 | 93 | 79 | 3.0 | 10.0 | 0.00 | 0.00 | 0.00 | 26 | 1019.4 |
| 20260904124204 | 93 | 130 | 2.0 | 7.0 | 0.00 | 0.00 | 0.00 | 26 | 1019.4 |
| 20260904123703 | 93 | 113 | 4.0 | 7.0 | 0.00 | 0.00 | 0.00 | 26 | 1019.5 |
| 20260904123203 | 92 | 85 | 2.0 | 9.0 | 0.00 | 0.00 | 0.00 | 28 | 1019.6 |
| 20260904122703 | 92 | 75 | 3.0 | 9.0 | 0.00 | 0.00 | 0.00 | 27 | 1019.7 |
| 20260904122428 | 92 | 124 | 3.0 | 6.0 | 0.00 | 0.00 | 0.00 | 27 | 1019.7 |
| 20260904121703 | 92 | 152 | 4.0 | 6.0 | 0.00 | 0.00 | 0.00 | 28 | 1019.7 |
| 20260904121427 | 92 | 125 | 3.0 | 6.0 | 0.00 | 0.00 | 0.00 | 28 | 1019.8 |
| 20260904120702 | 92 | 288 | 3.0 | 6.0 | 0.00 | 0.00 | 0.00 | 29 | 1019.8 |
| 20260904120202 | 92 | 69 | 4.0 | 6.0 | 0.00 | 0.00 | 0.00 | 29 | 1019.9 |
| 20260904115702 | 91 | 172 | 2.0 | 5.0 | 0.00 | 0.00 | 0.00 | 30 | 1019.9 |
| 20260904115202 | 91 | 94 | 2.0 | 5.0 | 0.00 | 0.00 | 0.00 | 30 | 1019.9 |
| 20260904114702 | 91 | 125 | 3.0 | 6.0 | 0.00 | 0.00 | 0.00 | 30 | 1019.9 |
| 20260904114202 | 90 | 185 | 1.0 | 9.0 | 0.00 | 0.00 | 0.00 | 30 | 1020.0 |
| 20260904113701 | 91 | 128 | 6.0 | 9.0 | 0.00 | 0.00 | 0.00 | 30 | 1020.0 |
| 20260904113202 | 91 | 124 | 1.0 | 5.0 | 0.00 | 0.00 | 0.00 | 30 | 1020.1 |
| 20260904112702 | 91 | 204 | 2.0 | 6.0 | 0.00 | 0.00 | 0.00 | 31 | 1020.0 |
| 20260904112201 | 90 | 185 | 4.0 | 9.0 | 0.00 | 0.00 | 0.00 | 30 | 1020.1 |
| 20260904111702 | 90 | 168 | 5.0 | 9.0 | 0.00 | 0.00 | 0.00 | 31 | 1020.1 |
| 20260904111201 | 89 | 168 | 3.0 | 9.0 | 0.00 | 0.00 | 0.00 | 31 | 1020.1 |
| 20260904110919 | 89 | 116 | 3.0 | 9.0 | 0.00 | 0.00 | 0.00 | 30 | 1020.3 |
| 20260904110201 | 90 | 168 | 3.0 | 9.0 | 0.00 | 0.00 | 0.00 | 30 | 1020.3 |
| 20260904105701 | 90 | 121 | 1.0 | 9.0 | 0.00 | 0.00 | 0.00 | 29 | 1020.4 |
| 20260904105201 | 91 | 130 | 6.0 | 9.0 | 0.00 | 0.00 | 0.00 | 29 | 1020.3 |
| 20260904104700 | 90 | 92 | 4.0 | 5.0 | 0.00 | 0.00 | 0.00 | 29 | 1020.4 |
| 20260904104420 | 90 | 120 | 2.0 | 4.0 | 0.00 | 0.00 | 0.00 | 29 | 1020.4 |
| 20260904103700 | 89 | 106 | 2.0 | 6.0 | 0.00 | 0.00 | 0.00 | 29 | 1020.6 |
| 20260904103201 | 90 | 107 | 4.0 | 7.0 | 0.00 | 0.00 | 0.00 | 29 | 1020.7 |
| 20260904102705 | 88 | 68 | 3.0 | 7.0 | 0.00 | 0.00 | 0.00 | 30 | 1020.7 |
| 20260904102200 | 88 | 61 | 4.0 | 6.0 | 0.00 | 0.00 | 0.00 | 30 | 1020.8 |
| 20260904101939 | 89 | 87 | 3.0 | 5.0 | 0.00 | 0.00 | 0.00 | 30 | 1020.9 |
| 20260904101200 | 88 | 89 | 2.0 | 6.0 | 0.00 | 0.00 | 0.00 | 30 | 1020.9 |
| 20260904100704 | 88 | 107 | 3.0 | 6.0 | 0.00 | 0.00 | 0.00 | 30 | 1020.9 |
| 20260904100159 | 88 | 87 | 5.0 | 6.0 | 0.00 | 0.00 | 0.00 | 30 | 1021.1 |
| 20260904095659 | 86 | 25 | 3.0 | 5.0 | 0.00 | 0.00 | 0.00 | 30 | 1021.1 |
| 20260904095159 | 86 | 14 | 4.0 | 7.0 | 0.00 | 0.00 | 0.00 | 30 | 1021.2 |
| 20260904094659 | 87 | 73 | 6.0 | 7.0 | 0.00 | 0.00 | 0.00 | 30 | 1021.2 |
| 20260904094159 | 87 | 86 | 2.0 | 9.0 | 0.00 | 0.00 | 0.00 | 30 | 1021.2 |
| 20260904094150 | 87 | 80 | 6.0 | 9.0 | 0.00 | 0.00 | 0.00 | 30 | 1021.3 |
| 20260904093159 | 87 | 92 | 1.0 | 7.0 | 0.00 | 0.00 | 0.00 | 32 | 1021.3 |
| 20260904092659 | 87 | 87 | 4.0 | 7.0 | 0.00 | 0.00 | 0.00 | 32 | 1021.4 |
| 20260904092159 | 87 | 99 | 2.0 | 5.0 | 0.00 | 0.00 | 0.00 | 33 | 1021.4 |
| 20260904091659 | 87 | 85 | 3.0 | 6.0 | 0.00 | 0.00 | 0.00 | 34 | 1021.5 |
| 20260904091159 | 86 | 58 | 5.0 | 6.0 | 0.00 | 0.00 | 0.00 | 34 | 1021.5 |
| 20260904090917 | 85 | 86 | 3.0 | 5.0 | 0.00 | 0.00 | 0.00 | 36 | 1021.5 |
| 20260904090158 | 85 | 104 | 3.0 | 5.0 | 0.00 | 0.00 | 0.00 | 36 | 1021.6 |
| 20260904085658 | 85 | 151 | 2.0 | 5.0 | 0.00 | 0.00 | 0.00 | 35 | 1021.5 |
| 20260904085158 | 84 | 109 | 2.0 | 3.0 | 0.00 | 0.00 | 0.00 | 37 | 1021.6 |
| 20260904084658 | 84 | 86 | 2.0 | 3.0 | 0.00 | 0.00 | 0.00 | 38 | 1021.6 |
| 20260904084158 | 83 | 76 | 0.0 | 5.0 | 0.00 | 0.00 | 0.00 | 38 | 1021.5 |
| 20260904083919 | 82 | 76 | 2.0 | 5.0 | 0.00 | 0.00 | 0.00 | 39 | 1021.5 |
| 20260904083158 | 83 | 72 | 4.0 | 5.0 | 0.00 | 0.00 | 0.00 | 37 | 1021.5 |
| 20260904082659 | 83 | 76 | 2.0 | 4.0 | 0.00 | 0.00 | 0.00 | 39 | 1021.5 |
| 20260904082158 | 82 | 123 | 2.0 | 4.0 | 0.00 | 0.00 | 0.00 | 40 | 1021.6 |
| 20260904081657 | 82 | 125 | 3.0 | 5.0 | 0.00 | 0.00 | 0.00 | 40 | 1021.5 |
| 20260904081159 | 81 | 130 | 0.0 | 6.0 | 0.00 | 0.00 | 0.00 | 41 | 1021.6 |
| 20260904080657 | 81 | 130 | 3.0 | 6.0 | 0.00 | 0.00 | 0.00 | 41 | 1021.5 |
| 20260904080158 | 80 | 102 | 3.0 | 5.0 | 0.00 | 0.00 | 0.00 | 42 | 1021.5 |
| 20260904075658 | 80 | 99 | 2.0 | 4.0 | 0.00 | 0.00 | 0.00 | 41 | 1021.4 |
| 20260904075156 | 80 | 94 | 3.0 | 4.0 | 0.00 | 0.00 | 0.00 | 42 | 1021.4 |
| 20260904074656 | 80 | 79 | 2.0 | 4.0 | 0.00 | 0.00 | 0.00 | 43 | 1021.5 |
| 20260904074416 | 79 | 90 | 1.0 | 3.0 | 0.00 | 0.00 | 0.00 | 42 | 1021.5 |
| 20260904074141 | 78 | 89 | 1.0 | 3.0 | 0.00 | 0.00 | 0.00 | 43 | 1021.5 |
| 20260904073156 | 78 | 90 | 2.0 | 3.0 | 0.00 | 0.00 | 0.00 | 43 | 1021.5 |
| 20260904072657 | 77 | 89 | 1.0 | 3.0 | 0.00 | 0.00 | 0.00 | 44 | 1021.4 |
| 20260904072156 | 76 | 89 | 1.0 | 3.0 | 0.00 | 0.00 | 0.00 | 45 | 1021.4 |
| 20260904071656 | 76 | 89 | 1.0 | 2.0 | 0.00 | 0.00 | 0.00 | 46 | 1021.4 |
| 20260904071155 | 75 | 89 | 2.0 | 3.0 | 0.00 | 0.00 | 0.00 | 48 | 1021.4 |
| 20260904070656 | 75 | 89 | 1.0 | 3.0 | 0.00 | 0.00 | 0.00 | 48 | 1021.4 |
| 20260904070416 | 75 | 89 | 2.0 | 3.0 | 0.00 | 0.00 | 0.00 | 48 | 1021.4 |
| 20260904065656 | 74 | 89 | 2.0 | 3.0 | 0.00 | 0.00 | 0.00 | 48 | 1021.3 |
| 20260904065155 | 74 | 86 | 1.0 | 3.0 | 0.00 | 0.00 | 0.00 | 47 | 1021.4 |
| 20260904064656 | 73 | 62 | 2.0 | 2.0 | 0.00 | 0.00 | 0.00 | 48 | 1021.3 |
| 20260904064156 | 73 | 62 | 0.0 | 1.0 | 0.00 | 0.00 | 0.00 | 49 | 1021.4 |
| 20260904063655 | 72 | 62 | 0.0 | 0.0 | 0.00 | 0.00 | 0.00 | 51 | 1021.4 |
| 20260904063155 | 71 | 62 | 0.0 | 1.0 | 0.00 | 0.00 | 0.00 | 52 | 1021.5 |
| 20260904063145 | 71 | 63 | 0.0 | 1.0 | 0.00 | 0.00 | 0.00 | 53 | 1021.5 |
| 20260904062415 | 70 | 65 | 0.0 | 0.0 | 0.00 | 0.00 | 0.00 | 54 | 1021.4 |
| 20260904061655 | 70 | 0 | 0.0 | 0.0 | 0.00 | 0.00 | 0.00 | 54 | 1021.4 |
| 20260904061159 | 69 | 0 | 0.0 | 0.0 | 0.00 | 0.00 | 0.00 | 54 | 1021.3 |
| 20260904060653 | 69 | 0 | 0.0 | 2.0 | 0.00 | 0.00 | 0.00 | 54 | 1021.2 |
| 20260904060152 | 69 | 0 | 1.0 | 2.0 | 0.00 | 0.00 | 0.00 | 54 | 1021.2 |
| 20260904055653 | 69 | 0 | 0.0 | 0.0 | 0.00 | 0.00 | 0.00 | 54 | 1021.2 |
| 20260904055153 | 69 | 0 | 0.0 | 0.0 | 0.00 | 0.00 | 0.00 | 54 | 1021.2 |
| 20260904055135 | 69 | 0 | 0.0 | 1.0 | 0.00 | 0.00 | 0.00 | 54 | 1021.1 |
| 20260904054152 | 69 | 0 | 0.0 | 1.0 | 0.00 | 0.00 | 0.00 | 53 | 1021.1 |
| 20260904053652 | 69 | 0 | 0.0 | 0.0 | 0.00 | 0.00 | 0.00 | 52 | 1021.1 |
| 20260904053153 | 68 | 0 | 0.0 | 0.0 | 0.00 | 0.00 | 0.00 | 52 | 1021.1 |
| 20260904052652 | 68 | 0 | 0.0 | 0.0 | 0.00 | 0.00 | 0.00 | 53 | 1021.0 |
| 20260904052152 | 67 | 0 | 0.0 | 1.0 | 0.00 | 0.00 | 0.00 | 53 | 1020.9 |
| 20260904051652 | 67 | 0 | 0.0 | 2.0 | 0.00 | 0.00 | 0.00 | 54 | 1020.9 |
| 20260904051152 | 67 | 0 | 1.0 | 2.0 | 0.00 | 0.00 | 0.00 | 55 | 1020.8 |
| 20260904050907 | 67 | 0 | 1.0 | 1.0 | 0.00 | 0.00 | 0.00 | 55 | 1020.8 |
| 20260904050151 | 66 | 0 | 0.0 | 0.0 | 0.00 | 0.00 | 0.00 | 56 | 1020.9 |
| 20260904045652 | 66 | 0 | 0.0 | 2.0 | 0.00 | 0.00 | 0.00 | 56 | 1020.8 |
| 20260904045151 | 66 | 0 | 0.0 | 2.0 | 0.00 | 0.00 | 0.00 | 56 | 1020.8 |
| 20260904044913 | 67 | 0 | 1.0 | 2.0 | 0.00 | 0.00 | 0.00 | 55 | 1020.8 |
| 20260904044153 | 67 | 0 | 0.0 | 0.0 | 0.00 | 0.00 | 0.00 | 55 | 1020.8 |
| 20260904043652 | 67 | 0 | 0.0 | 0.0 | 0.00 | 0.00 | 0.00 | 55 | 1020.8 |
| 20260904043152 | 67 | 0 | 0.0 | 0.0 | 0.00 | 0.00 | 0.00 | 55 | 1020.7 |
| 20260904042652 | 67 | 0 | 0.0 | 2.0 | 0.00 | 0.00 | 0.00 | 56 | 1020.8 |
| 20260904042152 | 68 | 0 | 1.0 | 2.0 | 0.00 | 0.00 | 0.00 | 54 | 1020.8 |
| 20260904041651 | 68 | 0 | 0.0 | 0.0 | 0.00 | 0.00 | 0.00 | 54 | 1020.8 |
| 20260904041152 | 68 | 0 | 0.0 | 0.0 | 0.00 | 0.00 | 0.00 | 54 | 1020.8 |
| 20260904040651 | 68 | 0 | 0.0 | 0.0 | 0.00 | 0.00 | 0.00 | 54 | 1020.7 |
| 20260904040152 | 68 | 0 | 0.0 | 0.0 | 0.00 | 0.00 | 0.00 | 54 | 1020.7 |
| 20260904035652 | 68 | 0 | 0.0 | 0.0 | 0.00 | 0.00 | 0.00 | 54 | 1020.6 |
| 20260904035152 | 68 | 0 | 0.0 | 0.0 | 0.00 | 0.00 | 0.00 | 54 | 1020.6 |
| 20260904034651 | 68 | 0 | 0.0 | 0.0 | 0.00 | 0.00 | 0.00 | 54 | 1020.7 |
| 20260904034152 | 69 | 0 | 0.0 | 0.0 | 0.00 | 0.00 | 0.00 | 54 | 1020.7 |
| 20260904033652 | 69 | 0 | 0.0 | 0.0 | 0.00 | 0.00 | 0.00 | 53 | 1020.7 |
| 20260904033413 | 69 | 0 | 0.0 | 0.0 | 0.00 | 0.00 | 0.00 | 53 | 1020.8 |
| 20260904032651 | 70 | 0 | 0.0 | 0.0 | 0.00 | 0.00 | 0.00 | 51 | 1020.7 |
| 20260904032151 | 71 | 0 | 0.0 | 0.0 | 0.00 | 0.00 | 0.00 | 50 | 1020.8 |
| 20260904031912 | 71 | 0 | 0.0 | 1.0 | 0.00 | 0.00 | 0.00 | 49 | 1020.7 |
| 20260904031151 | 71 | 0 | 0.0 | 2.0 | 0.00 | 0.00 | 0.00 | 49 | 1020.7 |
| 20260904030914 | 71 | 0 | 1.0 | 2.0 | 0.00 | 0.00 | 0.00 | 49 | 1020.7 |
| 20260904030151 | 71 | 0 | 2.0 | 3.0 | 0.00 | 0.00 | 0.00 | 49 | 1020.7 |
| 20260904025650 | 71 | 0 | 1.0 | 3.0 | 0.00 | 0.00 | 0.00 | 49 | 1020.7 |
| 20260904025149 | 72 | 0 | 2.0 | 3.0 | 0.00 | 0.00 | 0.00 | 48 | 1020.6 |
| 20260904024915 | 72 | 0 | 0.0 | 0.0 | 0.00 | 0.00 | 0.00 | 48 | 1020.6 |
| 20260904024150 | 72 | 0 | 0.0 | 0.0 | 0.00 | 0.00 | 0.00 | 48 | 1020.6 |
| 20260904023650 | 72 | 0 | 0.0 | 2.0 | 0.00 | 0.00 | 0.00 | 48 | 1020.7 |
| 20260904023149 | 72 | 0 | 0.0 | 2.0 | 0.00 | 0.00 | 0.00 | 47 | 1020.6 |
| 20260904022650 | 72 | 0 | 1.0 | 3.0 | 0.00 | 0.00 | 0.00 | 47 | 1020.7 |
| 20260904022149 | 73 | 0 | 1.0 | 3.0 | 0.00 | 0.00 | 0.00 | 47 | 1020.6 |
| 20260904021649 | 73 | 0 | 0.0 | 2.0 | 0.00 | 0.00 | 0.00 | 48 | 1020.7 |
| 20260904021149 | 73 | 0 | 1.0 | 3.0 | 0.00 | 0.00 | 0.00 | 48 | 1020.8 |
| 20260904020650 | 73 | 0 | 2.0 | 3.0 | 0.00 | 0.00 | 0.00 | 48 | 1020.8 |
| 20260904020149 | 73 | 0 | 2.0 | 2.0 | 0.00 | 0.00 | 0.00 | 48 | 1020.7 |
| 20260904015648 | 73 | 0 | 0.0 | 2.0 | 0.00 | 0.00 | 0.00 | 48 | 1020.7 |
| 20260904015149 | 73 | 0 | 1.0 | 2.0 | 0.00 | 0.00 | 0.00 | 48 | 1020.7 |
| 20260904014649 | 73 | 0 | 0.0 | 2.0 | 0.00 | 0.00 | 0.00 | 48 | 1020.6 |
| 20260904014148 | 73 | 0 | 2.0 | 3.0 | 0.00 | 0.00 | 0.00 | 48 | 1020.7 |
| 20260904013649 | 73 | 0 | 1.0 | 3.0 | 0.00 | 0.00 | 0.00 | 48 | 1020.7 |
| 20260904013148 | 73 | 0 | 1.0 | 2.0 | 0.00 | 0.00 | 0.00 | 48 | 1020.7 |
| 20260904012648 | 73 | 0 | 0.0 | 2.0 | 0.00 | 0.00 | 0.00 | 48 | 1020.7 |
| 20260904012148 | 73 | 0 | 0.0 | 2.0 | 0.00 | 0.00 | 0.00 | 48 | 1020.8 |
| 20260904011633 | 73 | 0 | 1.0 | 1.0 | 0.00 | 0.00 | 0.00 | 48 | 1020.7 |
| 20260904011134 | 73 | 0 | 1.0 | 1.0 | 0.00 | 0.00 | 0.00 | 48 | 1020.7 |
| 20260904010620 | 73 | 0 | 0.0 | 0.0 | 0.00 | 0.00 | 0.00 | 48 | 1020.7 |
| 20260904010113 | 73 | 0 | 0.0 | 0.0 | 0.00 | 0.00 | 0.00 | 47 | 1020.7 |
| 20260904005606 | 73 | 0 | 0.0 | 1.0 | 0.00 | 0.00 | 0.00 | 47 | 1020.6 |
| 20260904005104 | 73 | 0 | 0.0 | 1.0 | 0.00 | 0.00 | 0.00 | 47 | 1020.6 |
| 20260904004604 | 74 | 0 | 0.0 | 3.0 | 0.00 | 0.00 | 0.00 | 47 | 1020.6 |
| 20260904004105 | 74 | 0 | 2.0 | 4.0 | 0.00 | 0.00 | 0.00 | 47 | 1020.6 |
| 20260904003824 | 74 | 0 | 2.0 | 4.0 | 0.00 | 0.00 | 0.00 | 47 | 1020.8 |
| 20260904003105 | 74 | 0 | 2.0 | 3.0 | 0.00 | 0.00 | 0.00 | 46 | 1020.6 |
| 20260904002605 | 74 | 0 | 2.0 | 3.0 | 0.00 | 0.00 | 0.00 | 46 | 1020.8 |
| 20260904002324 | 74 | 0 | 2.0 | 3.0 | 0.00 | 0.00 | 0.00 | 46 | 1020.7 |